ECMWFFLT2_prec_pwat_150.txt.gz
Precipitable_Water
0.50 0.53 0.56 0.59 0.62 0.67 0.71 0.74 0.76 0.80 0.83 0.88 0.99 0.99 1.06 1.11 1.12 1.19 1.22 1.23 1.27 1.33 1.40 1.42 1.53 1.54 1.45 1.48 1.49 1.56 1.54 1.54 1.54 1.61 1.62 1.60 1.54 1.51 1.50 1.53 1.54 1.54 1.55 1.55 1.54 1.50 1.49 1.44 1.42 1.40 1.38 1.36
0.46 0.50 0.54 0.58 0.60 0.65 0.68 0.70 0.74 0.81 0.87 0.92 0.99 1.02 1.15 1.18 1.23 1.30 1.31 1.30 1.30 1.30 1.32 1.36 1.33 1.38 1.40 1.43 1.41 1.51 1.47 1.46 1.50 1.55 1.54 1.52 1.49 1.46 1.43 1.40 1.44 1.44 1.45 1.48 1.48 1.47 1.48 1.46 1.43 1.42 1.38 1.37
0.44 0.47 0.52 0.56 0.59 0.63 0.66 0.69 0.72 0.80 0.88 0.92 0.99 1.05 1.10 1.26 1.29 1.23 1.24 1.22 1.24 1.25 1.25 1.31 1.33 1.30 1.35 1.43 1.48 1.50 1.51 1.52 1.53 1.56 1.55 1.48 1.45 1.46 1.43 1.42 1.42 1.41 1.40 1.43 1.46 1.45 1.44 1.40 1.40 1.35 1.29 1.30
0.43 0.46 0.49 0.53 0.58 0.62 0.65 0.68 0.72 0.78 0.86 0.89 0.94 0.99 1.07 1.14 1.23 1.24 1.22 1.20 1.21 1.22 1.24 1.26 1.29 1.30 1.29 1.32 1.38 1.43 1.47 1.52 1.54 1.55 1.52 1.47 1.44 1.43 1.42 1.42 1.41 1.40 1.39 1.39 1.41 1.42 1.41 1.40 1.39 1.36 1.27 1.26
0.42 0.45 0.47 0.50 0.55 0.59 0.64 0.68 0.72 0.76 0.82 0.85 0.89 0.91 0.99 1.13 1.29 1.34 1.32 1.30 1.24 1.22 1.21 1.22 1.23 1.24 1.24 1.27 1.33 1.38 1.46 1.50 1.54 1.52 1.48 1.46 1.39 1.40 1.40 1.39 1.39 1.39 1.39 1.40 1.38 1.38 1.39 1.38 1.35 1.33 1.30 1.26
0.41 0.44 0.45 0.49 0.52 0.58 0.62 0.66 0.70 0.76 0.80 0.85 0.87 0.89 0.96 1.02 1.15 1.28 1.29 1.30 1.30 1.27 1.24 1.20 1.20 1.21 1.20 1.22 1.28 1.34 1.39 1.50 1.50 1.48 1.44 1.44 1.41 1.39 1.36 1.35 1.35 1.33 1.32 1.32 1.31 1.32 1.34 1.36 1.35 1.35 1.34 1.28
0.40 0.42 0.44 0.46 0.51 0.56 0.61 0.64 0.68 0.72 0.78 0.80 0.86 0.89 0.92 0.99 1.08 1.18 1.26 1.30 1.30 1.31 1.28 1.24 1.22 1.24 1.24 1.24 1.28 1.31 1.35 1.38 1.48 1.46 1.43 1.42 1.39 1.34 1.31 1.30 1.30 1.29 1.27 1.28 1.27 1.24 1.25 1.28 1.31 1.33 1.33 1.29
0.39 0.40 0.42 0.45 0.48 0.53 0.58 0.62 0.65 0.69 0.73 0.76 0.81 0.86 0.88 0.92 1.01 1.11 1.16 1.23 1.28 1.29 1.32 1.32 1.27 1.24 1.21 1.24 1.28 1.31 1.30 1.35 1.42 1.43 1.41 1.38 1.34 1.30 1.26 1.22 1.20 1.22 1.23 1.23 1.22 1.23 1.17 1.16 1.21 1.24 1.24 1.23
0.35 0.38 0.41 0.43 0.46 0.50 0.55 0.59 0.62 0.65 0.68 0.73 0.77 0.80 0.83 0.88 0.92 0.99 1.07 1.13 1.18 1.23 1.27 1.30 1.33 1.30 1.25 1.26 1.28 1.30 1.30 1.31 1.36 1.38 1.35 1.31 1.27 1.25 1.24 1.17 1.12 1.16 1.19 1.18 1.19 1.21 1.21 1.14 1.10 1.12 1.16 1.20
0.34 0.35 0.36 0.38 0.42 0.47 0.51 0.55 0.59 0.62 0.63 0.67 0.73 0.76 0.78 0.83 0.87 0.91 0.96 0.98 1.06 1.13 1.16 1.23 1.30 1.29 1.25 1.23 1.25 1.29 1.27 1.28 1.29 1.28 1.28 1.24 1.20 1.20 1.20 1.15 1.10 1.08 1.13 1.14 1.14 1.18 1.20 1.20 1.14 1.08 1.10 1.13
0.30 0.31 0.34 0.35 0.38 0.41 0.46 0.52 0.55 0.59 0.61 0.62 0.65 0.70 0.75 0.73 0.74 0.79 0.86 0.91 0.95 1.01 1.08 1.11 1.21 1.25 1.23 1.21 1.22 1.25 1.23 1.22 1.24 1.22 1.20 1.17 1.13 1.13 1.13 1.11 1.11 1.09 1.07 1.10 1.11 1.15 1.17 1.18 1.16 1.12 1.07 1.07
0.24 0.26 0.28 0.31 0.34 0.36 0.40 0.45 0.50 0.56 0.59 0.61 0.61 0.64 0.68 0.71 0.71 0.72 0.74 0.77 0.85 0.91 0.97 1.02 1.13 1.20 1.20 1.18 1.19 1.22 1.22 1.20 1.20 1.19 1.15 1.11 1.08 1.06 1.05 1.03 1.04 1.04 1.03 1.04 1.09 1.10 1.13 1.15 1.16 1.13 1.08 1.03
0.21 0.22 0.23 0.25 0.27 0.30 0.34 0.37 0.41 0.48 0.55 0.58 0.60 0.61 0.63 0.67 0.68 0.70 0.72 0.72 0.77 0.82 0.85 0.92 1.02 1.10 1.14 1.12 1.11 1.15 1.16 1.17 1.17 1.16 1.13 1.08 1.04 1.01 0.98 0.97 0.97 0.96 0.95 0.98 1.02 1.06 1.09 1.12 1.13 1.12 1.09 1.05
0.19 0.20 0.21 0.22 0.23 0.24 0.27 0.30 0.35 0.39 0.43 0.50 0.55 0.58 0.61 0.62 0.63 0.66 0.69 0.71 0.74 0.76 0.80 0.84 0.89 1.00 1.05 1.02 0.99 1.02 1.07 1.09 1.07 1.06 1.07 1.05 1.01 1.00 0.98 0.95 0.95 0.93 0.89 0.89 0.95 1.02 1.06 1.08 1.09 1.09 1.08 1.06
0.20 0.21 0.20 0.21 0.21 0.22 0.23 0.24 0.28 0.31 0.35 0.40 0.46 0.50 0.55 0.60 0.62 0.64 0.66 0.69 0.71 0.73 0.74 0.77 0.81 0.85 0.95 0.99 1.01 0.96 0.97 1.03 1.03 1.01 0.99 1.00 1.00 1.01 0.99 0.95 0.95 0.91 0.86 0.86 0.89 0.95 1.01 1.03 1.06 1.06 1.06 1.05
0.20 0.21 0.21 0.21 0.21 0.21 0.23 0.22 0.23 0.24 0.26 0.30 0.36 0.42 0.46 0.51 0.57 0.62 0.66 0.69 0.72 0.72 0.73 0.73 0.75 0.79 0.84 0.88 0.94 0.96 0.96 0.94 0.97 0.99 0.98 0.99 0.99 1.02 1.00 0.96 0.94 0.92 0.86 0.85 0.88 0.90 0.94 0.98 1.01 1.03 1.04 1.01
0.19 0.20 0.21 0.21 0.21 0.21 0.22 0.21 0.21 0.21 0.22 0.24 0.27 0.32 0.38 0.43 0.46 0.54 0.63 0.68 0.70 0.72 0.72 0.73 0.75 0.75 0.78 0.82 0.87 0.95 0.97 0.95 0.97 0.96 0.95 0.97 0.99 0.99 0.99 0.96 0.93 0.91 0.86 0.84 0.86 0.89 0.89 0.91 0.94 0.97 0.97 0.96
0.18 0.18 0.19 0.20 0.20 0.20 0.21 0.21 0.21 0.21 0.21 0.21 0.22 0.24 0.28 0.34 0.41 0.44 0.52 0.60 0.66 0.68 0.69 0.71 0.73 0.75 0.76 0.80 0.83 0.90 0.94 0.92 0.93 0.95 0.92 0.96 0.97 0.94 0.92 0.92 0.92 0.89 0.83 0.82 0.84 0.87 0.87 0.88 0.88 0.90 0.90 0.89
0.17 0.17 0.18 0.18 0.19 0.19 0.20 0.20 0.20 0.21 0.22 0.22 0.22 0.22 0.22 0.24 0.30 0.37 0.42 0.49 0.57 0.63 0.67 0.68 0.70 0.72 0.74 0.80 0.83 0.86 0.89 0.88 0.90 0.92 0.91 0.92 0.92 0.93 0.91 0.90 0.91 0.89 0.84 0.82 0.82 0.84 0.86 0.84 0.86 0.87 0.86 0.86
0.16 0.16 0.16 0.17 0.17 0.18 0.19 0.19 0.19 0.19 0.20 0.21 0.21 0.22 0.22 0.22 0.24 0.28 0.34 0.39 0.46 0.51 0.59 0.65 0.67 0.69 0.73 0.76 0.79 0.80 0.82 0.84 0.86 0.86 0.86 0.86 0.87 0.86 0.87 0.87 0.87 0.87 0.83 0.81 0.80 0.81 0.83 0.83 0.84 0.85 0.87 0.87
0.15 0.15 0.15 0.15 0.15 0.16 0.17 0.17 0.17 0.18 0.19 0.19 0.20 0.21 0.21 0.22 0.22 0.23 0.26 0.32 0.38 0.44 0.50 0.58 0.66 0.71 0.71 0.74 0.75 0.75 0.76 0.78 0.81 0.83 0.85 0.85 0.85 0.82 0.81 0.83 0.83 0.83 0.81 0.76 0.76 0.76 0.77 0.80 0.81 0.81 0.82 0.83
0.14 0.14 0.14 0.15 0.15 0.15 0.15 0.16 0.16 0.16 0.17 0.18 0.19 0.19 0.20 0.21 0.22 0.22 0.22 0.24 0.30 0.37 0.44 0.51 0.57 0.64 0.70 0.74 0.74 0.73 0.74 0.77 0.81 0.81 0.81 0.82 0.85 0.84 0.84 0.81 0.78 0.78 0.79 0.77 0.73 0.73 0.74 0.73 0.75 0.76 0.77 0.78
0.14 0.14 0.14 0.14 0.14 0.14 0.14 0.14 0.15 0.15 0.15 0.16 0.17 0.17 0.19 0.20 0.21 0.21 0.21 0.22 0.23 0.28 0.35 0.42 0.49 0.55 0.60 0.69 0.70 0.69 0.70 0.75 0.80 0.79 0.77 0.78 0.81 0.84 0.82 0.81 0.81 0.79 0.75 0.72 0.72 0.70 0.71 0.71 0.70 0.72 0.74 0.75
0.12 0.12 0.11 0.10 0.10 0.10 0.11 0.12 0.12 0.13 0.13 0.14 0.14 0.15 0.16 0.17 0.19 0.20 0.21 0.21 0.22 0.22 0.25 0.32 0.40 0.47 0.54 0.58 0.63 0.66 0.68 0.69 0.73 0.74 0.73 0.74 0.76 0.78 0.80 0.81 0.79 0.79 0.76 0.74 0.70 0.69 0.69 0.69 0.70 0.70 0.71 0.70
0.10 0.09 0.09 0.09 0.09 0.08 0.09 0.09 0.10 0.10 0.10 0.11 0.12 0.13 0.14 0.15 0.16 0.17 0.19 0.20 0.21 0.21 0.21 0.23 0.30 0.38 0.44 0.51 0.55 0.61 0.63 0.66 0.68 0.71 0.71 0.71 0.73 0.72 0.73 0.75 0.77 0.75 0.75 0.71 0.69 0.69 0.69 0.67 0.66 0.65 0.64 0.62
0.11 0.11 0.10 0.10 0.09 0.09 0.09 0.09 0.08 0.09 0.10 0.10 0.10 0.11 0.11 0.12 0.13 0.15 0.15 0.17 0.19 0.20 0.21 0.21 0.21 0.28 0.36 0.42 0.48 0.54 0.59 0.61 0.64 0.65 0.66 0.68 0.67 0.69 0.70 0.70 0.75 0.74 0.73 0.67 0.65 0.64 0.64 0.67 0.68 0.67 0.65 0.63
0.11 0.11 0.11 0.11 0.10 0.10 0.09 0.10 0.10 0.10 0.10 0.11 0.10 0.10 0.10 0.10 0.11 0.12 0.13 0.13 0.15 0.18 0.19 0.20 0.20 0.21 0.27 0.34 0.40 0.44 0.50 0.55 0.57 0.60 0.61 0.63 0.62 0.62 0.65 0.68 0.72 0.73 0.74 0.67 0.69 0.68 0.64 0.61 0.62 0.67 0.67 0.66
0.12 0.12 0.12 0.12 0.11 0.11 0.10 0.10 0.11 0.10 0.10 0.10 0.10 0.10 0.10 0.10 0.09 0.10 0.10 0.12 0.12 0.13 0.16 0.18 0.19 0.20 0.20 0.25 0.31 0.36 0.41 0.47 0.51 0.53 0.55 0.57 0.58 0.58 0.56 0.60 0.64 0.70 0.71 0.70 0.67 0.59 0.60 0.60 0.61 0.56 0.62 0.65
0.12 0.12 0.12 0.13 0.13 0.13 0.12 0.12 0.11 0.10 0.09 0.10 0.10 0.10 0.10 0.10 0.10 0.09 0.09 0.10 0.10 0.11 0.13 0.14 0.16 0.18 0.19 0.19 0.22 0.27 0.31 0.37 0.44 0.49 0.51 0.52 0.52 0.52 0.52 0.53 0.57 0.63 0.67 0.68 0.70 0.63 0.59 0.57 0.56 0.57 0.61 0.62
0.12 0.12 0.12 0.11 0.10 0.10 0.10 0.09 0.09 0.09 0.08 0.09 0.09 0.10 0.10 0.10 0.11 0.10 0.10 0.09 0.09 0.10 0.11 0.12 0.13 0.15 0.17 0.18 0.19 0.20 0.23 0.27 0.34 0.41 0.45 0.50 0.51 0.52 0.53 0.51 0.52 0.54 0.62 0.65 0.66 0.67 0.65 0.62 0.56 0.56 0.60 0.60
0.13 0.12 0.12 0.12 0.11 0.11 0.11 0.10 0.10 0.10 0.10 0.10 0.10 0.11 0.10 0.11 0.11 0.11 0.10 0.10 0.10 0.09 0.09 0.10 0.11 0.12 0.13 0.16 0.17 0.17 0.18 0.20 0.24 0.31 0.37 0.43 0.48 0.50 0.52 0.53 0.50 0.50 0.53 0.59 0.62 0.63 0.64 0.63 0.64 0.63 0.59 0.54

ECMWFFLT2_prec_pwat_156.txt.gz
Precipitable_Water
0.35 0.37 0.39 0.40 0.43 0.43 0.45 0.47 0.50 0.52 0.53 0.56 0.58 0.60 0.64 0.66 0.69 0.78 0.84 0.89 0.90 0.95 0.97 0.98 0.98 0.99 1.00 1.01 1.02 1.01 0.96 0.96 1.03 1.07 1.12 1.18 1.23 1.27 1.23 1.29 1.50 1.58 1.53 1.55 1.54 1.57 1.59 1.58 1.60 1.60 1.61 1.61
0.32 0.32 0.33 0.34 0.37 0.38 0.39 0.40 0.45 0.47 0.50 0.52 0.55 0.56 0.59 0.65 0.67 0.70 0.77 0.84 0.88 0.91 0.94 0.96 0.97 0.98 1.00 1.01 1.04 1.06 1.05 1.00 0.99 1.08 1.13 1.18 1.20 1.25 1.28 1.27 1.21 1.26 1.36 1.52 1.54 1.55 1.56 1.60 1.63 1.63 1.65 1.67
0.27 0.30 0.29 0.29 0.31 0.32 0.32 0.33 0.36 0.40 0.45 0.48 0.50 0.52 0.54 0.59 0.64 0.66 0.69 0.76 0.82 0.88 0.91 0.93 0.95 0.97 1.00 1.02 1.04 1.07 1.10 1.08 1.06 1.08 1.16 1.20 1.20 1.19 1.24 1.28 1.24 1.28 1.39 1.45 1.50 1.53 1.54 1.56 1.60 1.65 1.66 1.66
0.26 0.27 0.27 0.26 0.28 0.28 0.30 0.29 0.30 0.31 0.34 0.39 0.43 0.48 0.50 0.53 0.59 0.62 0.62 0.67 0.73 0.80 0.86 0.91 0.94 0.96 0.98 1.00 1.02 1.07 1.12 1.12 1.13 1.15 1.18 1.22 1.22 1.22 1.25 1.28 1.28 1.29 1.33 1.37 1.43 1.45 1.47 1.52 1.59 1.61 1.60 1.63
0.25 0.25 0.25 0.25 0.25 0.26 0.26 0.27 0.26 0.26 0.27 0.27 0.32 0.39 0.44 0.47 0.50 0.53 0.61 0.61 0.64 0.70 0.76 0.84 0.90 0.94 0.97 1.00 1.02 1.07 1.11 1.13 1.17 1.20 1.19 1.25 1.26 1.25 1.23 1.31 1.35 1.29 1.36 1.40 1.42 1.42 1.40 1.41 1.48 1.52 1.57 1.61
0.24 0.23 0.23 0.23 0.22 0.23 0.24 0.25 0.25 0.24 0.24 0.24 0.23 0.28 0.35 0.40 0.43 0.48 0.55 0.61 0.61 0.64 0.69 0.74 0.83 0.89 0.93 0.98 1.02 1.06 1.10 1.14 1.17 1.24 1.26 1.23 1.22 1.27 1.26 1.29 1.36 1.34 1.32 1.36 1.38 1.41 1.41 1.40 1.38 1.41 1.45 1.49
0.22 0.22 0.21 0.21 0.20 0.21 0.22 0.23 0.24 0.24 0.23 0.23 0.22 0.22 0.26 0.32 0.38 0.40 0.46 0.54 0.60 0.62 0.63 0.66 0.72 0.79 0.86 0.91 0.96 0.99 1.07 1.13 1.17 1.19 1.22 1.24 1.23 1.21 1.22 1.24 1.30 1.33 1.34 1.33 1.38 1.38 1.39 1.40 1.36 1.36 1.36 1.40
0.19 0.19 0.19 0.19 0.19 0.19 0.19 0.20 0.21 0.21 0.22 0.23 0.22 0.22 0.23 0.24 0.27 0.34 0.37 0.43 0.50 0.58 0.63 0.64 0.66 0.70 0.75 0.83 0.88 0.92 0.95 1.01 1.12 1.17 1.18 1.21 1.23 1.21 1.19 1.18 1.17 1.26 1.31 1.28 1.29 1.33 1.33 1.34 1.34 1.33 1.31 1.32
0.17 0.18 0.17 0.17 0.17 0.17 0.18 0.17 0.18 0.18 0.19 0.21 0.22 0.20 0.21 0.23 0.23 0.24 0.29 0.34 0.39 0.45 0.52 0.56 0.60 0.66 0.69 0.74 0.80 0.87 0.92 0.94 1.00 1.08 1.14 1.16 1.18 1.21 1.21 1.18 1.14 1.13 1.20 1.25 1.26 1.29 1.32 1.31 1.31 1.32 1.32 1.31
0.17 0.17 0.16 0.16 0.16 0.15 0.16 0.16 0.16 0.16 0.16 0.17 0.18 0.19 0.20 0.22 0.22 0.22 0.22 0.24 0.29 0.34 0.41 0.49 0.54 0.58 0.65 0.68 0.73 0.78 0.85 0.91 0.93 0.97 1.06 1.11 1.11 1.15 1.17 1.19 1.17 1.12 1.09 1.19 1.20 1.21 1.25 1.29 1.28 1.28 1.29 1.32
0.17 0.17 0.17 0.16 0.16 0.15 0.15 0.15 0.15 0.15 0.15 0.16 0.16 0.16 0.16 0.19 0.20 0.21 0.21 0.21 0.22 0.26 0.32 0.37 0.44 0.50 0.56 0.62 0.66 0.73 0.76 0.82 0.88 0.91 0.96 1.03 1.07 1.10 1.12 1.13 1.13 1.13 1.10 1.09 1.16 1.17 1.20 1.25 1.27 1.26 1.29 1.28
0.15 0.15 0.15 0.15 0.16 0.15 0.17 0.15 0.15 0.14 0.15 0.15 0.15 0.16 0.15 0.16 0.17 0.18 0.19 0.21 0.21 0.23 0.26 0.28 0.35 0.41 0.46 0.50 0.59 0.67 0.73 0.74 0.80 0.85 0.88 0.93 0.99 1.03 1.07 1.08 1.09 1.10 1.11 1.10 1.09 1.11 1.14 1.16 1.19 1.22 1.24 1.26
0.14 0.14 0.14 0.13 0.13 0.13 0.14 0.14 0.13 0.13 0.14 0.14 0.14 0.15 0.15 0.14 0.15 0.15 0.15 0.16 0.19 0.22 0.23 0.26 0.27 0.31 0.38 0.44 0.48 0.58 0.66 0.71 0.72 0.76 0.79 0.84 0.88 0.94 0.99 1.04 1.06 1.08 1.08 1.10 1.09 1.08 1.09 1.10 1.11 1.13 1.16 1.20
0.13 0.13 0.12 0.12 0.11 0.11 0.11 0.11 0.11 0.12 0.11 0.11 0.11 0.12 0.13 0.13 0.15 0.14 0.14 0.14 0.15 0.18 0.21 0.23 0.26 0.27 0.29 0.34 0.42 0.47 0.53 0.63 0.68 0.71 0.75 0.77 0.81 0.85 0.90 0.94 1.00 1.04 1.05 1.06 1.07 1.08 1.06 1.06 1.07 1.07 1.08 1.11
0.12 0.11 0.11 0.11 0.10 0.11 0.10 0.11 0.11 0.11 0.11 0.11 0.10 0.10 0.11 0.11 0.13 0.13 0.13 0.13 0.14 0.16 0.17 0.19 0.22 0.25 0.27 0.29 0.34 0.41 0.45 0.53 0.59 0.64 0.70 0.74 0.75 0.78 0.83 0.87 0.93 0.96 0.98 1.01 1.02 1.04 1.05 1.05 1.05 1.04 1.04 1.06
0.12 0.11 0.11 0.11 0.10 0.10 0.10 0.11 0.10 0.10 0.10 0.11 0.10 0.10 0.10 0.09 0.11 0.11 0.10 0.11 0.13 0.14 0.15 0.16 0.17 0.19 0.23 0.26 0.30 0.35 0.40 0.44 0.50 0.56 0.61 0.70 0.73 0.75 0.79 0.84 0.85 0.87 0.88 0.93 0.97 0.99 0.99 1.03 1.04 1.02 0.99 0.99
0.12 0.12 0.11 0.11 0.11 0.11 0.11 0.10 0.10 0.10 0.10 0.10 0.10 0.10 0.10 0.09 0.10 0.09 0.09 0.10 0.11 0.13 0.13 0.14 0.15 0.16 0.17 0.21 0.27 0.30 0.35 0.38 0.42 0.47 0.54 0.58 0.66 0.69 0.74 0.79 0.82 0.84 0.84 0.86 0.90 0.92 0.94 0.95 0.98 1.02 0.99 0.96
0.12 0.12 0.11 0.12 0.12 0.12 0.12 0.11 0.10 0.10 0.10 0.10 0.10 0.10 0.10 0.09 0.10 0.09 0.09 0.09 0.10 0.11 0.11 0.12 0.13 0.14 0.15 0.17 0.20 0.27 0.30 0.33 0.38 0.39 0.44 0.52 0.55 0.61 0.68 0.72 0.76 0.78 0.78 0.82 0.86 0.87 0.87 0.88 0.91 0.95 0.95 0.92
0.11 0.11 0.11 0.11 0.12 0.12 0.12 0.12 0.11 0.10 0.10 0.10 0.10 0.10 0.10 0.10 0.10 0.09 0.08 0.09 0.09 0.09 0.10 0.10 0.11 0.11 0.12 0.14 0.17 0.20 0.25 0.29 0.33 0.37 0.39 0.45 0.49 0.51 0.60 0.67 0.69 0.71 0.75 0.76 0.78 0.82 0.83 0.82 0.83 0.87 0.90 0.91
0.12 0.12 0.12 0.11 0.11 0.12 0.12 0.12 0.12 0.11 0.10 0.10 0.11 0.10 0.10 0.10 0.10 0.09 0.09 0.08 0.08 0.08 0.09 0.09 0.10 0.10 0.11 0.12 0.14 0.16 0.19 0.22 0.26 0.30 0.36 0.39 0.45 0.48 0.50 0.56 0.62 0.68 0.71 0.74 0.75 0.77 0.79 0.80 0.80 0.81 0.85 0.88
0.12 0.12 0.12 0.12 0.11 0.11 0.12 0.12 0.12 0.12 0.11 0.11 0.11 0.11 0.11 0.11 0.10 0.10 0.09 0.09 0.08 0.08 0.08 0.08 0.09 0.09 0.10 0.11 0.12 0.13 0.15 0.17 0.21 0.26 0.29 0.34 0.41 0.45 0.47 0.50 0.53 0.62 0.66 0.68 0.71 0.74 0.77 0.78 0.78 0.79 0.80 0.80
0.12 0.12 0.12 0.12 0.11 0.11 0.11 0.11 0.12 0.12 0.12 0.12 0.12 0.12 0.12 0.11 0.11 0.10 0.10 0.10 0.09 0.08 0.08 0.08 0.08 0.08 0.09 0.10 0.10 0.10 0.12 0.13 0.16 0.19 0.24 0.28 0.35 0.41 0.42 0.45 0.48 0.52 0.61 0.63 0.64 0.69 0.71 0.77 0.77 0.76 0.76 0.78
0.12 0.12 0.12 0.12 0.12 0.11 0.11 0.11 0.12 0.12 0.12 0.12 0.12 0.13 0.13 0.12 0.11 0.11 0.10 0.10 0.09 0.09 0.08 0.08 0.08 0.08 0.08 0.09 0.09 0.09 0.09 0.10 0.12 0.14 0.17 0.21 0.27 0.33 0.38 0.42 0.45 0.47 0.55 0.58 0.57 0.62 0.67 0.73 0.74 0.75 0.75 0.76
0.12 0.12 0.12 0.11 0.11 0.12 0.12 0.12 0.12 0.13 0.13 0.13 0.13 0.13 0.13 0.13 0.12 0.11 0.11 0.11 0.10 0.09 0.09 0.08 0.08 0.07 0.08 0.08 0.09 0.08 0.08 0.09 0.10 0.11 0.13 0.15 0.20 0.25 0.30 0.35 0.39 0.45 0.46 0.53 0.55 0.56 0.61 0.67 0.71 0.76 0.78 0.76
0.12 0.12 0.11 0.12 0.11 0.11 0.12 0.12 0.13 0.13 0.13 0.13 0.13 0.14 0.14 0.14 0.13 0.12 0.12 0.11 0.11 0.10 0.09 0.09 0.08 0.08 0.08 0.08 0.08 0.08 0.08 0.09 0.09 0.10 0.12 0.13 0.16 0.19 0.23 0.29 0.33 0.38 0.44 0.44 0.47 0.54 0.55 0.58 0.67 0.73 0.75 0.75
0.13 0.13 0.12 0.12 0.12 0.13 0.13 0.12 0.11 0.11 0.12 0.12 0.13 0.14 0.14 0.14 0.13 0.13 0.13 0.12 0.12 0.11 0.10 0.09 0.09 0.08 0.08 0.08 0.08 0.09 0.09 0.08 0.08 0.08 0.09 0.11 0.11 0.15 0.18 0.23 0.31 0.34 0.39 0.38 0.38 0.43 0.49 0.52 0.55 0.68 0.72 0.72
0.14 0.14 0.14 0.13 0.13 0.13 0.13 0.14 0.13 0.13 0.12 0.13 0.13 0.14 0.14 0.14 0.13 0.13 0.13 0.13 0.12 0.12 0.11 0.10 0.09 0.09 0.09 0.08 0.08 0.08 0.08 0.08 0.07 0.08 0.08 0.09 0.10 0.11 0.13 0.17 0.26 0.31 0.36 0.36 0.40 0.41 0.43 0.47 0.48 0.52 0.62 0.69
0.15 0.15 0.14 0.15 0.15 0.14 0.13 0.13 0.13 0.13 0.13 0.13 0.13 0.13 0.13 0.13 0.14 0.14 0.13 0.13 0.13 0.13 0.12 0.11 0.11 0.10 0.09 0.09 0.09 0.08 0.08 0.08 0.07 0.08 0.08 0.08 0.09 0.11 0.09 0.11 0.14 0.25 0.31 0.36 0.36 0.33 0.35 0.43 0.48 0.45 0.49 0.54
0.16 0.15 0.14 0.14 0.14 0.14 0.14 0.14 0.13 0.12 0.12 0.13 0.13 0.13 0.13 0.13 0.14 0.14 0.14 0.14 0.14 0.14 0.13 0.13 0.12 0.11 0.10 0.10 0.09 0.09 0.08 0.08 0.08 0.08 0.08 0.09 0.09 0.09 0.10 0.09 0.12 0.16 0.24 0.30 0.37 0.36 0.35 0.35 0.40 0.44 0.48 0.50
0.16 0.15 0.14 0.13 0.13 0.12 0.12 0.12 0.12 0.11 0.11 0.11 0.12 0.12 0.13 0.13 0.14 0.14 0.14 0.14 0.14 0.14 0.14 0.14 0.13 0.12 0.11 0.10 0.10 0.09 0.09 0.09 0.08 0.08 0.08 0.08 0.09 0.08 0.10 0.10 0.09 0.10 0.15 0.23 0.30 0.36 0.39 0.41 0.36 0.40 0.46 0.46
0.17 0.15 0.14 0.14 0.13 0.13 0.12 0.12 0.12 0.13 0.12 0.12 0.12 0.13 0.12 0.13 0.14 0.15 0.15 0.15 0.15 0.15 0.15 0.15 0.14 0.13 0.12 0.11 0.10 0.10 0.10 0.09 0.08 0.08 0.08 0.09 0.08 0.08 0.09 0.10 0.08 0.09 0.10 0.14 0.20 0.28 0.35 0.40 0.45 0.45 0.42 0.39

ECMWFFLT2_prec_pwat_162.txt.gz
Precipitable_Water
0.28 0.27 0.29 0.29 0.29 0.29 0.28 0.27 0.27 0.25 0.24 0.24 0.25 0.26 0.25 0.24 0.25 0.27 0.30 0.32 0.36 0.39 0.41 0.43 0.45 0.52 0.56 0.61 0.69 0.73 0.77 0.83 0.86 0.87 0.88 0.91 0.94 0.95 0.96 0.97 0.98 0.97 0.99 1.00 1.01 1.02 0.99 0.97 0.98 1.02 1.05 1.08
0.26 0.24 0.25 0.25 0.25 0.25 0.24 0.24 0.23 0.22 0.20 0.20 0.22 0.23 0.22 0.22 0.21 0.22 0.24 0.26 0.29 0.31 0.33 0.36 0.38 0.43 0.48 0.52 0.57 0.64 0.69 0.75 0.82 0.85 0.86 0.88 0.91 0.93 0.94 0.95 0.95 0.94 0.98 1.02 1.02 1.03 1.05 1.01 0.98 0.98 1.03 1.05
0.22 0.21 0.20 0.21 0.20 0.20 0.20 0.19 0.19 0.18 0.17 0.16 0.17 0.17 0.18 0.18 0.17 0.18 0.20 0.22 0.23 0.25 0.27 0.30 0.32 0.34 0.39 0.44 0.49 0.52 0.60 0.66 0.72 0.79 0.84 0.85 0.87 0.89 0.92 0.94 0.94 0.93 0.95 0.99 1.02 1.03 1.02 1.04 1.02 0.99 1.00 1.02
0.18 0.19 0.17 0.17 0.17 0.17 0.17 0.16 0.16 0.15 0.14 0.13 0.14 0.14 0.14 0.13 0.13 0.13 0.14 0.17 0.17 0.19 0.21 0.23 0.25 0.27 0.30 0.34 0.39 0.43 0.46 0.51 0.60 0.67 0.75 0.82 0.83 0.85 0.86 0.90 0.91 0.92 0.92 0.95 0.98 1.00 1.01 1.01 1.02 1.03 1.01 1.00
0.17 0.17 0.15 0.15 0.15 0.15 0.14 0.14 0.13 0.13 0.12 0.12 0.12 0.12 0.12 0.11 0.11 0.11 0.12 0.13 0.15 0.15 0.16 0.18 0.20 0.22 0.23 0.26 0.29 0.33 0.36 0.41 0.46 0.53 0.59 0.67 0.76 0.79 0.81 0.84 0.88 0.90 0.91 0.93 0.95 0.97 0.99 1.01 1.01 1.03 1.06 1.04
0.15 0.14 0.14 0.13 0.13 0.14 0.13 0.13 0.12 0.12 0.11 0.11 0.10 0.11 0.11 0.11 0.11 0.10 0.11 0.12 0.13 0.13 0.13 0.14 0.16 0.17 0.18 0.20 0.23 0.25 0.26 0.31 0.36 0.41 0.47 0.51 0.57 0.67 0.75 0.78 0.82 0.86 0.88 0.90 0.91 0.93 0.95 0.98 1.00 1.02 1.02 1.04
0.13 0.12 0.12 0.12 0.12 0.13 0.13 0.12 0.11 0.11 0.11 0.10 0.10 0.10 0.11 0.10 0.10 0.10 0.10 0.11 0.12 0.12 0.12 0.12 0.12 0.13 0.14 0.16 0.17 0.20 0.20 0.22 0.25 0.30 0.35 0.42 0.48 0.52 0.57 0.66 0.74 0.79 0.83 0.85 0.87 0.88 0.89 0.92 0.97 0.99 1.00 1.02
0.12 0.11 0.11 0.11 0.11 0.12 0.12 0.11 0.11 0.11 0.10 0.10 0.09 0.09 0.10 0.10 0.10 0.10 0.10 0.11 0.11 0.11 0.11 0.10 0.10 0.11 0.11 0.12 0.13 0.17 0.16 0.17 0.18 0.21 0.24 0.30 0.37 0.44 0.48 0.52 0.59 0.68 0.74 0.80 0.84 0.84 0.84 0.86 0.89 0.93 0.97 0.98
0.11 0.11 0.11 0.11 0.11 0.11 0.11 0.11 0.11 0.11 0.10 0.10 0.09 0.09 0.10 0.10 0.09 0.09 0.09 0.10 0.11 0.11 0.11 0.11 0.10 0.10 0.10 0.11 0.11 0.14 0.13 0.14 0.16 0.17 0.17 0.20 0.26 0.34 0.41 0.44 0.47 0.53 0.59 0.68 0.78 0.82 0.83 0.84 0.85 0.87 0.92 0.95
0.12 0.11 0.11 0.11 0.11 0.11 0.11 0.11 0.11 0.10 0.10 0.10 0.10 0.09 0.09 0.09 0.09 0.09 0.09 0.09 0.10 0.10 0.11 0.10 0.10 0.10 0.10 0.10 0.11 0.13 0.12 0.13 0.14 0.14 0.16 0.16 0.17 0.20 0.26 0.33 0.40 0.45 0.49 0.54 0.62 0.72 0.78 0.81 0.83 0.83 0.85 0.90
0.11 0.11 0.11 0.12 0.12 0.11 0.11 0.11 0.10 0.10 0.10 0.10 0.10 0.10 0.09 0.09 0.08 0.08 0.08 0.09 0.09 0.09 0.10 0.10 0.10 0.10 0.10 0.10 0.10 0.12 0.12 0.11 0.13 0.13 0.14 0.15 0.15 0.16 0.18 0.21 0.28 0.35 0.41 0.47 0.52 0.59 0.66 0.76 0.81 0.82 0.83 0.85
0.11 0.12 0.12 0.12 0.12 0.12 0.12 0.11 0.11 0.11 0.11 0.11 0.10 0.11 0.10 0.10 0.09 0.08 0.08 0.08 0.09 0.09 0.09 0.09 0.10 0.10 0.09 0.09 0.10 0.11 0.11 0.11 0.11 0.12 0.13 0.13 0.13 0.14 0.16 0.16 0.18 0.23 0.30 0.37 0.43 0.46 0.52 0.64 0.74 0.78 0.80 0.82
0.12 0.12 0.12 0.12 0.12 0.12 0.12 0.11 0.11 0.11 0.11 0.11 0.11 0.11 0.11 0.11 0.09 0.09 0.09 0.08 0.08 0.09 0.08 0.08 0.09 0.09 0.09 0.09 0.09 0.10 0.10 0.10 0.10 0.11 0.12 0.12 0.12 0.13 0.14 0.15 0.15 0.17 0.19 0.25 0.32 0.40 0.44 0.50 0.59 0.68 0.73 0.77
0.11 0.12 0.11 0.12 0.11 0.12 0.12 0.11 0.11 0.11 0.11 0.11 0.11 0.11 0.11 0.11 0.11 0.09 0.09 0.08 0.08 0.08 0.07 0.08 0.08 0.08 0.09 0.09 0.09 0.10 0.09 0.10 0.10 0.10 0.10 0.11 0.12 0.12 0.13 0.13 0.14 0.16 0.15 0.16 0.20 0.27 0.35 0.41 0.49 0.56 0.62 0.68
0.11 0.11 0.11 0.11 0.11 0.12 0.12 0.12 0.12 0.11 0.11 0.11 0.11 0.11 0.11 0.11 0.11 0.10 0.10 0.09 0.09 0.08 0.08 0.07 0.07 0.08 0.08 0.08 0.09 0.10 0.09 0.10 0.09 0.09 0.09 0.09 0.10 0.11 0.12 0.13 0.14 0.15 0.14 0.14 0.15 0.17 0.21 0.27 0.36 0.45 0.54 0.59
0.11 0.11 0.11 0.11 0.11 0.11 0.12 0.12 0.11 0.11 0.11 0.11 0.12 0.12 0.11 0.12 0.12 0.11 0.10 0.10 0.09 0.09 0.08 0.08 0.07 0.07 0.08 0.08 0.09 0.09 0.09 0.09 0.09 0.09 0.09 0.09 0.10 0.11 0.12 0.12 0.13 0.14 0.14 0.13 0.13 0.14 0.14 0.18 0.22 0.29 0.39 0.46
0.12 0.12 0.12 0.11 0.11 0.11 0.11 0.12 0.12 0.11 0.11 0.11 0.12 0.12 0.12 0.12 0.12 0.12 0.11 0.11 0.10 0.09 0.09 0.08 0.08 0.08 0.08 0.08 0.09 0.09 0.09 0.09 0.09 0.08 0.08 0.09 0.10 0.10 0.11 0.11 0.11 0.13 0.13 0.12 0.12 0.12 0.12 0.14 0.16 0.20 0.26 0.34
0.12 0.12 0.12 0.12 0.11 0.11 0.11 0.11 0.12 0.12 0.12 0.12 0.12 0.12 0.12 0.12 0.13 0.12 0.12 0.12 0.11 0.10 0.10 0.09 0.09 0.08 0.08 0.08 0.09 0.09 0.09 0.09 0.09 0.08 0.08 0.08 0.09 0.09 0.09 0.10 0.11 0.11 0.10 0.11 0.11 0.11 0.12 0.13 0.14 0.17 0.18 0.24
0.12 0.13 0.12 0.12 0.12 0.11 0.12 0.12 0.12 0.12 0.12 0.12 0.12 0.12 0.12 0.13 0.13 0.13 0.13 0.13 0.12 0.11 0.11 0.10 0.09 0.09 0.09 0.09 0.09 0.08 0.09 0.09 0.09 0.08 0.08 0.08 0.08 0.08 0.08 0.09 0.11 0.12 0.12 0.11 0.09 0.10 0.11 0.11 0.13 0.14 0.15 0.18
0.13 0.13 0.13 0.13 0.13 0.12 0.12 0.12 0.12 0.12 0.12 0.13 0.13 0.13 0.13 0.13 0.13 0.13 0.13 0.13 0.13 0.12 0.11 0.11 0.10 0.10 0.10 0.10 0.09 0.09 0.09 0.09 0.09 0.09 0.08 0.08 0.08 0.07 0.07 0.08 0.08 0.12 0.12 0.11 0.09 0.09 0.10 0.11 0.12 0.12 0.14 0.17
0.14 0.14 0.13 0.13 0.13 0.13 0.13 0.13 0.12 0.13 0.13 0.13 0.13 0.13 0.13 0.13 0.13 0.13 0.14 0.14 0.13 0.12 0.12 0.12 0.11 0.11 0.11 0.11 0.10 0.09 0.09 0.09 0.09 0.09 0.08 0.07 0.08 0.09 0.08 0.08 0.08 0.09 0.11 0.11 0.10 0.09 0.09 0.10 0.11 0.11 0.14 0.18
0.14 0.14 0.14 0.14 0.14 0.13 0.13 0.13 0.13 0.13 0.13 0.13 0.13 0.13 0.13 0.13 0.13 0.14 0.14 0.14 0.14 0.13 0.13 0.13 0.12 0.12 0.12 0.12 0.11 0.10 0.10 0.09 0.10 0.09 0.09 0.08 0.08 0.09 0.08 0.07 0.07 0.08 0.09 0.10 0.09 0.09 0.09 0.08 0.09 0.12 0.16 0.21
0.15 0.15 0.15 0.15 0.14 0.14 0.13 0.14 0.14 0.14 0.14 0.13 0.13 0.13 0.13 0.13 0.14 0.14 0.14 0.14 0.14 0.13 0.13 0.13 0.13 0.13 0.13 0.12 0.12 0.11 0.11 0.10 0.10 0.10 0.09 0.08 0.08 0.09 0.09 0.08 0.08 0.09 0.10 0.09 0.09 0.10 0.09 0.08 0.08 0.12 0.18 0.22
0.15 0.15 0.14 0.14 0.14 0.14 0.14 0.14 0.14 0.14 0.14 0.14 0.14 0.14 0.14 0.13 0.14 0.14 0.14 0.14 0.14 0.14 0.14 0.14 0.13 0.13 0.13 0.13 0.13 0.12 0.11 0.11 0.10 0.10 0.09 0.09 0.08 0.08 0.08 0.08 0.08 0.09 0.10 0.09 0.09 0.09 0.09 0.09 0.09 0.11 0.17 0.21
0.15 0.14 0.14 0.14 0.14 0.13 0.14 0.14 0.14 0.14 0.14 0.14 0.14 0.14 0.14 0.14 0.14 0.14 0.14 0.14 0.14 0.14 0.14 0.14 0.14 0.14 0.14 0.14 0.14 0.13 0.12 0.12 0.12 0.12 0.11 0.10 0.09 0.08 0.08 0.07 0.08 0.09 0.10 0.08 0.07 0.07 0.07 0.09 0.10 0.11 0.17 0.18
0.15 0.15 0.15 0.14 0.14 0.14 0.14 0.14 0.14 0.13 0.14 0.14 0.15 0.14 0.14 0.14 0.14 0.14 0.14 0.14 0.14 0.14 0.15 0.14 0.14 0.14 0.14 0.15 0.14 0.14 0.14 0.13 0.13 0.12 0.11 0.11 0.09 0.09 0.08 0.08 0.08 0.09 0.09 0.06 0.07 0.06 0.06 0.07 0.08 0.11 0.12 0.15
0.15 0.16 0.16 0.16 0.15 0.15 0.15 0.15 0.15 0.15 0.15 0.15 0.15 0.15 0.15 0.14 0.15 0.15 0.14 0.14 0.14 0.14 0.15 0.15 0.15 0.15 0.15 0.15 0.15 0.14 0.14 0.14 0.13 0.13 0.12 0.11 0.10 0.09 0.09 0.09 0.09 0.09 0.10 0.06 0.08 0.08 0.08 0.05 0.05 0.07 0.11 0.12
0.17 0.17 0.17 0.17 0.17 0.16 0.16 0.15 0.16 0.16 0.16 0.16 0.16 0.15 0.15 0.15 0.15 0.15 0.15 0.15 0.14 0.15 0.15 0.15 0.15 0.15 0.15 0.15 0.15 0.15 0.14 0.13 0.13 0.13 0.13 0.12 0.11 0.11 0.09 0.09 0.08 0.09 0.09 0.08 0.09 0.05 0.06 0.06 0.08 0.05 0.07 0.08
0.17 0.17 0.17 0.17 0.17 0.17 0.17 0.17 0.16 0.16 0.15 0.16 0.16 0.16 0.16 0.15 0.15 0.15 0.15 0.15 0.15 0.15 0.15 0.15 0.15 0.15 0.15 0.15 0.15 0.15 0.14 0.14 0.14 0.13 0.13 0.13 0.12 0.11 0.10 0.09 0.09 0.09 0.09 0.08 0.11 0.09 0.07 0.06 0.07 0.06 0.08 0.09
0.18 0.17 0.17 0.17 0.16 0.15 0.15 0.15 0.15 0.15 0.14 0.15 0.16 0.16 0.17 0.17 0.16 0.16 0.16 0.15 0.15 0.15 0.15 0.15 0.15 0.15 0.14 0.14 0.15 0.15 0.15 0.15 0.14 0.14 0.14 0.13 0.13 0.12 0.12 0.11 0.10 0.08 0.09 0.09 0.09 0.12 0.11 0.11 0.07 0.07 0.08 0.08
0.19 0.18 0.18 0.17 0.16 0.16 0.16 0.15 0.15 0.16 0.17 0.17 0.17 0.17 0.17 0.17 0.17 0.17 0.16 0.15 0.15 0.15 0.15 0.15 0.15 0.15 0.15 0.14 0.15 0.15 0.15 0.15 0.14 0.14 0.14 0.14 0.14 0.13 0.13 0.12 0.10 0.09 0.09 0.09 0.09 0.11 0.09 0.09 0.09 0.10 0.08 0.05

ECMWFFLT2_prec_pwat_168.txt.gz
Precipitable_Water
0.30 0.30 0.29 0.26 0.25 0.23 0.21 0.20 0.20 0.20 0.19 0.19 0.19 0.18 0.17 0.18 0.19 0.20 0.20 0.21 0.22 0.22 0.20 0.21 0.24 0.26 0.26 0.24 0.24 0.25 0.27 0.28 0.28 0.28 0.30 0.30 0.31 0.31 0.34 0.35 0.38 0.43 0.51 0.57 0.60 0.63 0.65 0.68 0.69 0.71 0.74 0.75
0.27 0.26 0.25 0.23 0.21 0.20 0.18 0.17 0.17 0.17 0.17 0.17 0.16 0.16 0.15 0.15 0.16 0.17 0.17 0.18 0.19 0.19 0.19 0.18 0.21 0.24 0.24 0.22 0.21 0.21 0.22 0.23 0.23 0.23 0.23 0.23 0.23 0.23 0.24 0.25 0.27 0.31 0.35 0.41 0.46 0.51 0.55 0.58 0.61 0.64 0.68 0.71
0.23 0.22 0.21 0.20 0.18 0.17 0.16 0.15 0.15 0.15 0.16 0.15 0.15 0.14 0.14 0.13 0.13 0.14 0.15 0.14 0.16 0.17 0.17 0.17 0.17 0.21 0.23 0.22 0.19 0.19 0.20 0.21 0.20 0.20 0.20 0.20 0.18 0.19 0.18 0.18 0.18 0.21 0.24 0.29 0.32 0.37 0.41 0.46 0.49 0.52 0.57 0.61
0.18 0.18 0.18 0.16 0.15 0.15 0.15 0.14 0.14 0.13 0.13 0.14 0.13 0.13 0.12 0.12 0.11 0.12 0.12 0.13 0.12 0.14 0.14 0.15 0.15 0.17 0.20 0.20 0.18 0.17 0.17 0.19 0.19 0.19 0.18 0.18 0.17 0.16 0.15 0.15 0.14 0.15 0.17 0.19 0.22 0.25 0.28 0.32 0.36 0.41 0.44 0.46
0.16 0.15 0.12 0.13 0.14 0.14 0.14 0.13 0.13 0.12 0.12 0.12 0.12 0.11 0.11 0.11 0.11 0.11 0.11 0.11 0.11 0.12 0.13 0.14 0.14 0.14 0.16 0.18 0.16 0.15 0.15 0.16 0.16 0.16 0.16 0.16 0.15 0.15 0.14 0.13 0.12 0.13 0.14 0.14 0.15 0.17 0.18 0.20 0.23 0.28 0.32 0.35
0.14 0.13 0.13 0.12 0.13 0.13 0.13 0.13 0.12 0.12 0.11 0.12 0.11 0.11 0.11 0.11 0.11 0.11 0.12 0.12 0.12 0.12 0.12 0.13 0.13 0.13 0.14 0.15 0.15 0.13 0.13 0.13 0.14 0.14 0.14 0.15 0.14 0.13 0.13 0.12 0.11 0.11 0.12 0.12 0.13 0.13 0.13 0.12 0.15 0.18 0.21 0.25
0.13 0.13 0.13 0.12 0.12 0.12 0.13 0.13 0.12 0.12 0.12 0.11 0.11 0.11 0.11 0.11 0.11 0.11 0.11 0.12 0.12 0.11 0.12 0.12 0.12 0.12 0.12 0.12 0.13 0.12 0.11 0.11 0.12 0.11 0.12 0.12 0.12 0.11 0.11 0.10 0.11 0.11 0.11 0.11 0.11 0.11 0.10 0.10 0.11 0.12 0.13 0.16
0.13 0.13 0.13 0.13 0.13 0.12 0.12 0.12 0.12 0.12 0.12 0.12 0.12 0.12 0.11 0.11 0.11 0.11 0.11 0.11 0.11 0.11 0.11 0.10 0.11 0.11 0.10 0.10 0.11 0.11 0.09 0.09 0.10 0.10 0.09 0.10 0.10 0.09 0.10 0.10 0.10 0.11 0.11 0.11 0.11 0.10 0.10 0.09 0.10 0.10 0.11 0.12
0.13 0.13 0.13 0.13 0.13 0.13 0.13 0.12 0.12 0.12 0.12 0.12 0.12 0.12 0.12 0.12 0.11 0.11 0.11 0.11 0.11 0.11 0.10 0.10 0.10 0.10 0.10 0.10 0.10 0.11 0.09 0.09 0.09 0.09 0.08 0.08 0.08 0.09 0.09 0.09 0.09 0.10 0.10 0.11 0.10 0.10 0.09 0.09 0.09 0.09 0.10 0.11
0.14 0.13 0.13 0.13 0.13 0.13 0.13 0.12 0.12 0.12 0.12 0.12 0.13 0.13 0.12 0.12 0.12 0.11 0.11 0.11 0.11 0.11 0.11 0.10 0.10 0.10 0.10 0.10 0.10 0.10 0.09 0.09 0.09 0.08 0.08 0.08 0.08 0.09 0.09 0.09 0.09 0.10 0.10 0.10 0.10 0.10 0.09 0.09 0.09 0.09 0.09 0.10
0.13 0.13 0.13 0.14 0.14 0.13 0.12 0.13 0.12 0.12 0.12 0.13 0.13 0.13 0.13 0.12 0.12 0.12 0.11 0.11 0.11 0.11 0.11 0.10 0.10 0.10 0.10 0.10 0.10 0.10 0.10 0.09 0.09 0.09 0.08 0.08 0.08 0.09 0.09 0.09 0.09 0.10 0.10 0.10 0.09 0.09 0.08 0.08 0.08 0.08 0.09 0.09
0.12 0.13 0.13 0.14 0.14 0.14 0.14 0.13 0.12 0.12 0.13 0.13 0.13 0.13 0.13 0.13 0.12 0.12 0.12 0.12 0.11 0.11 0.11 0.11 0.11 0.11 0.10 0.10 0.10 0.11 0.10 0.09 0.09 0.09 0.08 0.08 0.08 0.08 0.08 0.08 0.08 0.09 0.10 0.10 0.10 0.09 0.08 0.08 0.08 0.08 0.09 0.09
0.12 0.12 0.12 0.13 0.13 0.13 0.14 0.13 0.13 0.13 0.13 0.13 0.13 0.13 0.14 0.13 0.12 0.12 0.12 0.12 0.12 0.12 0.11 0.11 0.11 0.11 0.10 0.10 0.10 0.11 0.10 0.10 0.09 0.09 0.09 0.08 0.08 0.08 0.08 0.08 0.08 0.09 0.09 0.10 0.10 0.09 0.08 0.07 0.07 0.08 0.08 0.09
0.12 0.12 0.11 0.12 0.12 0.13 0.14 0.13 0.13 0.14 0.13 0.13 0.13 0.13 0.14 0.14 0.13 0.13 0.12 0.12 0.12 0.12 0.11 0.11 0.11 0.11 0.11 0.11 0.11 0.11 0.10 0.11 0.10 0.09 0.09 0.09 0.09 0.08 0.08 0.08 0.08 0.08 0.08 0.09 0.09 0.09 0.08 0.08 0.08 0.08 0.08 0.09
0.12 0.12 0.12 0.12 0.12 0.13 0.13 0.14 0.14 0.14 0.14 0.14 0.14 0.14 0.14 0.14 0.14 0.13 0.13 0.13 0.13 0.12 0.12 0.11 0.11 0.11 0.11 0.11 0.11 0.11 0.11 0.11 0.11 0.10 0.10 0.09 0.09 0.09 0.09 0.08 0.08 0.08 0.08 0.08 0.08 0.08 0.08 0.08 0.08 0.08 0.09 0.09
0.13 0.12 0.12 0.12 0.12 0.12 0.13 0.14 0.14 0.14 0.14 0.14 0.14 0.14 0.14 0.14 0.14 0.14 0.13 0.13 0.13 0.12 0.12 0.12 0.11 0.11 0.11 0.11 0.12 0.12 0.12 0.11 0.11 0.11 0.11 0.10 0.10 0.10 0.09 0.09 0.09 0.09 0.08 0.08 0.08 0.08 0.08 0.08 0.08 0.08 0.09 0.09
0.13 0.13 0.13 0.13 0.13 0.13 0.14 0.14 0.14 0.14 0.14 0.14 0.14 0.15 0.14 0.14 0.14 0.14 0.13 0.13 0.13 0.13 0.12 0.12 0.12 0.12 0.12 0.12 0.12 0.12 0.12 0.12 0.12 0.11 0.11 0.10 0.11 0.10 0.10 0.09 0.09 0.09 0.09 0.09 0.09 0.09 0.08 0.08 0.08 0.09 0.09 0.09
0.14 0.14 0.14 0.14 0.14 0.14 0.14 0.14 0.14 0.14 0.14 0.15 0.15 0.15 0.15 0.14 0.14 0.14 0.14 0.13 0.13 0.13 0.12 0.12 0.12 0.12 0.12 0.12 0.13 0.12 0.12 0.12 0.12 0.11 0.11 0.11 0.10 0.10 0.10 0.09 0.09 0.09 0.09 0.09 0.09 0.09 0.09 0.09 0.09 0.09 0.09 0.09
0.14 0.15 0.15 0.15 0.15 0.15 0.14 0.15 0.14 0.15 0.15 0.15 0.15 0.15 0.14 0.14 0.14 0.14 0.14 0.14 0.13 0.13 0.13 0.12 0.12 0.12 0.12 0.13 0.13 0.12 0.13 0.12 0.12 0.12 0.11 0.11 0.10 0.10 0.10 0.10 0.10 0.10 0.09 0.09 0.09 0.09 0.09 0.09 0.09 0.09 0.08 0.10
0.15 0.15 0.15 0.15 0.15 0.15 0.15 0.15 0.15 0.15 0.15 0.15 0.15 0.15 0.15 0.15 0.14 0.15 0.14 0.14 0.14 0.13 0.13 0.13 0.12 0.13 0.13 0.13 0.13 0.13 0.13 0.13 0.12 0.12 0.12 0.12 0.11 0.10 0.10 0.10 0.10 0.10 0.10 0.10 0.10 0.10 0.09 0.09 0.09 0.08 0.08 0.10
0.16 0.16 0.15 0.16 0.16 0.16 0.16 0.16 0.15 0.15 0.16 0.15 0.15 0.15 0.15 0.15 0.15 0.15 0.15 0.15 0.15 0.14 0.14 0.13 0.13 0.13 0.13 0.14 0.13 0.13 0.13 0.12 0.13 0.12 0.12 0.12 0.12 0.12 0.11 0.10 0.10 0.10 0.10 0.10 0.10 0.10 0.10 0.10 0.09 0.08 0.08 0.10
0.16 0.16 0.16 0.16 0.16 0.17 0.17 0.16 0.16 0.16 0.16 0.15 0.15 0.16 0.15 0.15 0.15 0.15 0.15 0.15 0.15 0.15 0.15 0.14 0.14 0.14 0.14 0.14 0.14 0.13 0.13 0.13 0.13 0.13 0.13 0.12 0.12 0.12 0.11 0.11 0.10 0.10 0.11 0.11 0.11 0.10 0.10 0.10 0.09 0.09 0.09 0.11
0.16 0.16 0.16 0.17 0.17 0.17 0.17 0.17 0.17 0.17 0.16 0.16 0.16 0.16 0.16 0.16 0.16 0.16 0.16 0.16 0.16 0.15 0.15 0.15 0.15 0.14 0.14 0.14 0.14 0.13 0.13 0.13 0.13 0.13 0.13 0.12 0.12 0.13 0.13 0.12 0.11 0.11 0.12 0.11 0.11 0.10 0.10 0.10 0.10 0.10 0.10 0.13
0.16 0.16 0.16 0.16 0.16 0.16 0.16 0.17 0.17 0.17 0.17 0.17 0.16 0.17 0.17 0.17 0.17 0.17 0.17 0.16 0.16 0.16 0.16 0.15 0.15 0.14 0.15 0.15 0.14 0.13 0.13 0.13 0.13 0.13 0.13 0.12 0.12 0.12 0.12 0.13 0.12 0.12 0.12 0.11 0.11 0.10 0.10 0.10 0.10 0.10 0.11 0.14
0.15 0.15 0.15 0.16 0.16 0.15 0.16 0.16 0.17 0.17 0.17 0.17 0.18 0.18 0.18 0.18 0.18 0.18 0.17 0.17 0.17 0.16 0.16 0.16 0.15 0.15 0.15 0.15 0.14 0.14 0.13 0.14 0.13 0.14 0.14 0.13 0.13 0.12 0.12 0.12 0.13 0.13 0.13 0.11 0.10 0.10 0.10 0.10 0.11 0.11 0.12 0.15
0.16 0.16 0.16 0.16 0.16 0.16 0.16 0.17 0.17 0.17 0.18 0.18 0.19 0.19 0.19 0.19 0.19 0.18 0.18 0.18 0.18 0.17 0.17 0.16 0.16 0.15 0.15 0.15 0.15 0.14 0.14 0.14 0.14 0.14 0.14 0.14 0.13 0.14 0.12 0.12 0.13 0.13 0.12 0.10 0.10 0.09 0.08 0.09 0.11 0.12 0.13 0.14
0.16 0.17 0.17 0.17 0.16 0.17 0.17 0.18 0.18 0.18 0.19 0.19 0.19 0.19 0.19 0.19 0.19 0.19 0.19 0.18 0.19 0.18 0.18 0.17 0.17 0.16 0.16 0.15 0.15 0.15 0.14 0.14 0.13 0.14 0.13 0.13 0.13 0.12 0.13 0.13 0.14 0.14 0.13 0.11 0.11 0.11 0.10 0.08 0.08 0.10 0.12 0.13
0.17 0.17 0.18 0.18 0.18 0.18 0.18 0.17 0.19 0.19 0.19 0.19 0.19 0.19 0.20 0.20 0.20 0.20 0.19 0.19 0.19 0.19 0.18 0.18 0.18 0.17 0.17 0.16 0.16 0.15 0.15 0.14 0.14 0.14 0.14 0.13 0.13 0.13 0.11 0.12 0.12 0.15 0.14 0.13 0.12 0.09 0.09 0.09 0.09 0.07 0.09 0.09
0.18 0.18 0.18 0.18 0.18 0.19 0.18 0.19 0.18 0.18 0.18 0.19 0.19 0.20 0.20 0.20 0.20 0.20 0.20 0.20 0.20 0.20 0.19 0.19 0.19 0.18 0.18 0.17 0.17 0.17 0.16 0.15 0.15 0.15 0.15 0.14 0.14 0.13 0.12 0.12 0.13 0.14 0.15 0.14 0.14 0.12 0.10 0.09 0.08 0.08 0.09 0.09
0.18 0.18 0.17 0.17 0.17 0.16 0.16 0.16 0.16 0.16 0.16 0.17 0.18 0.18 0.20 0.21 0.21 0.21 0.20 0.20 0.20 0.20 0.20 0.20 0.20 0.19 0.19 0.18 0.18 0.17 0.17 0.16 0.16 0.16 0.15 0.15 0.15 0.14 0.14 0.13 0.13 0.12 0.14 0.15 0.15 0.14 0.13 0.12 0.09 0.09 0.10 0.10
0.18 0.18 0.18 0.17 0.17 0.17 0.16 0.16 0.16 0.18 0.18 0.19 0.19 0.20 0.20 0.20 0.21 0.21 0.21 0.21 0.21 0.21 0.21 0.20 0.20 0.20 0.20 0.19 0.19 0.18 0.18 0.17 0.17 0.17 0.16 0.16 0.16 0.15 0.15 0.15 0.13 0.13 0.13 0.14 0.15 0.15 0.15 0.14 0.14 0.13 0.11 0.09

ECMWFFLT2_prec_pwat_174.txt.gz
Precipitable_Water
0.63 0.61 0.58 0.53 0.47 0.40 0.35 0.31 0.28 0.26 0.26 0.25 0.25 0.25 0.25 0.26 0.26 0.27 0.27 0.27 0.28 0.28 0.28 0.27 0.27 0.28 0.29 0.29 0.30 0.29 0.29 0.27 0.26 0.25 0.24 0.23 0.22 0.22 0.22 0.22 0.22 0.22 0.19 0.18 0.17 0.16 0.15 0.16 0.16 0.16 0.18 0.18
0.58 0.55 0.51 0.45 0.39 0.34 0.31 0.28 0.26 0.24 0.22 0.22 0.21 0.21 0.21 0.22 0.23 0.23 0.24 0.23 0.24 0.25 0.25 0.25 0.25 0.25 0.26 0.26 0.27 0.27 0.26 0.25 0.24 0.23 0.21 0.20 0.19 0.19 0.19 0.19 0.20 0.19 0.18 0.17 0.16 0.15 0.14 0.14 0.15 0.15 0.16 0.17
0.54 0.49 0.42 0.37 0.33 0.30 0.27 0.25 0.24 0.22 0.20 0.19 0.18 0.18 0.18 0.19 0.19 0.20 0.21 0.20 0.21 0.21 0.23 0.23 0.23 0.23 0.23 0.23 0.23 0.24 0.24 0.24 0.22 0.21 0.20 0.19 0.18 0.17 0.16 0.17 0.17 0.17 0.16 0.16 0.15 0.14 0.14 0.13 0.13 0.14 0.15 0.16
0.45 0.41 0.35 0.31 0.28 0.26 0.24 0.23 0.21 0.19 0.18 0.18 0.16 0.16 0.15 0.15 0.15 0.16 0.17 0.18 0.19 0.19 0.20 0.21 0.21 0.22 0.22 0.21 0.21 0.21 0.22 0.22 0.21 0.20 0.19 0.18 0.17 0.16 0.15 0.15 0.15 0.15 0.15 0.15 0.14 0.13 0.13 0.12 0.13 0.13 0.15 0.16
0.40 0.34 0.29 0.26 0.24 0.22 0.21 0.19 0.19 0.17 0.16 0.16 0.16 0.15 0.15 0.15 0.15 0.15 0.16 0.17 0.18 0.18 0.19 0.20 0.20 0.20 0.20 0.20 0.19 0.18 0.19 0.20 0.19 0.18 0.17 0.17 0.16 0.14 0.14 0.13 0.13 0.13 0.13 0.13 0.13 0.12 0.12 0.11 0.11 0.13 0.15 0.16
0.31 0.28 0.25 0.22 0.20 0.19 0.18 0.16 0.16 0.15 0.15 0.15 0.14 0.14 0.15 0.15 0.15 0.15 0.15 0.17 0.18 0.17 0.18 0.18 0.19 0.18 0.18 0.18 0.18 0.17 0.17 0.17 0.17 0.16 0.16 0.15 0.14 0.14 0.13 0.13 0.12 0.12 0.12 0.12 0.12 0.11 0.11 0.10 0.11 0.12 0.14 0.15
0.26 0.23 0.22 0.21 0.20 0.18 0.17 0.16 0.16 0.15 0.15 0.15 0.15 0.15 0.15 0.15 0.16 0.15 0.15 0.16 0.17 0.17 0.17 0.17 0.16 0.17 0.16 0.16 0.15 0.15 0.15 0.15 0.15 0.15 0.15 0.14 0.13 0.13 0.12 0.12 0.12 0.12 0.12 0.12 0.11 0.11 0.11 0.11 0.11 0.12 0.14 0.15
0.22 0.21 0.20 0.19 0.19 0.18 0.17 0.16 0.16 0.16 0.16 0.15 0.16 0.15 0.15 0.15 0.16 0.15 0.15 0.15 0.15 0.15 0.15 0.15 0.15 0.15 0.15 0.15 0.15 0.14 0.14 0.14 0.14 0.14 0.14 0.14 0.13 0.12 0.12 0.12 0.12 0.12 0.12 0.12 0.12 0.11 0.11 0.11 0.12 0.12 0.13 0.15
0.21 0.20 0.19 0.19 0.18 0.17 0.17 0.16 0.16 0.16 0.16 0.15 0.16 0.15 0.15 0.15 0.16 0.15 0.15 0.16 0.15 0.15 0.15 0.15 0.15 0.15 0.15 0.15 0.15 0.15 0.14 0.14 0.14 0.13 0.13 0.13 0.13 0.12 0.12 0.12 0.12 0.12 0.12 0.12 0.12 0.11 0.11 0.11 0.11 0.12 0.13 0.15
0.21 0.20 0.19 0.18 0.17 0.17 0.16 0.16 0.16 0.16 0.15 0.16 0.16 0.16 0.16 0.16 0.16 0.15 0.15 0.16 0.15 0.15 0.15 0.15 0.15 0.15 0.15 0.15 0.15 0.15 0.14 0.14 0.14 0.13 0.13 0.13 0.12 0.12 0.13 0.13 0.12 0.12 0.12 0.12 0.11 0.11 0.11 0.11 0.11 0.11 0.12 0.14
0.21 0.20 0.19 0.18 0.17 0.16 0.15 0.16 0.15 0.16 0.16 0.16 0.16 0.17 0.17 0.15 0.15 0.15 0.15 0.15 0.16 0.15 0.15 0.15 0.15 0.15 0.15 0.15 0.14 0.15 0.14 0.14 0.14 0.13 0.13 0.13 0.13 0.13 0.13 0.13 0.13 0.12 0.12 0.12 0.12 0.12 0.11 0.11 0.11 0.11 0.12 0.13
0.21 0.20 0.18 0.17 0.16 0.16 0.15 0.15 0.15 0.15 0.15 0.16 0.16 0.17 0.16 0.16 0.16 0.15 0.15 0.15 0.15 0.15 0.15 0.15 0.15 0.15 0.15 0.15 0.15 0.15 0.15 0.14 0.14 0.14 0.14 0.14 0.13 0.13 0.13 0.12 0.13 0.12 0.12 0.12 0.12 0.12 0.12 0.11 0.11 0.12 0.12 0.14
0.21 0.19 0.18 0.17 0.15 0.15 0.15 0.15 0.15 0.15 0.16 0.16 0.16 0.17 0.17 0.17 0.16 0.16 0.15 0.15 0.15 0.16 0.15 0.15 0.15 0.15 0.15 0.15 0.15 0.15 0.15 0.15 0.14 0.14 0.14 0.14 0.13 0.13 0.13 0.13 0.12 0.13 0.12 0.12 0.12 0.12 0.12 0.12 0.11 0.12 0.13 0.14
0.20 0.18 0.17 0.17 0.16 0.16 0.15 0.15 0.15 0.16 0.16 0.16 0.16 0.16 0.17 0.17 0.17 0.16 0.15 0.15 0.16 0.15 0.15 0.15 0.16 0.15 0.15 0.15 0.15 0.15 0.15 0.15 0.14 0.14 0.14 0.14 0.14 0.13 0.13 0.13 0.13 0.13 0.12 0.12 0.12 0.12 0.12 0.12 0.11 0.12 0.13 0.15
0.19 0.17 0.16 0.15 0.16 0.16 0.15 0.15 0.15 0.16 0.15 0.16 0.16 0.16 0.17 0.17 0.17 0.16 0.16 0.15 0.15 0.15 0.15 0.15 0.15 0.15 0.15 0.15 0.15 0.16 0.15 0.15 0.15 0.14 0.14 0.14 0.13 0.13 0.13 0.13 0.13 0.13 0.13 0.13 0.13 0.13 0.13 0.12 0.12 0.12 0.13 0.15
0.17 0.15 0.14 0.15 0.15 0.16 0.15 0.15 0.15 0.15 0.15 0.16 0.16 0.17 0.17 0.17 0.17 0.16 0.16 0.16 0.16 0.15 0.15 0.15 0.15 0.16 0.16 0.15 0.16 0.16 0.16 0.15 0.15 0.15 0.15 0.15 0.15 0.15 0.14 0.14 0.14 0.14 0.13 0.13 0.13 0.13 0.13 0.13 0.13 0.12 0.13 0.15
0.17 0.14 0.14 0.14 0.14 0.14 0.16 0.15 0.16 0.15 0.15 0.16 0.16 0.17 0.17 0.18 0.17 0.17 0.16 0.16 0.16 0.16 0.16 0.16 0.16 0.16 0.16 0.16 0.16 0.16 0.16 0.17 0.16 0.16 0.16 0.15 0.16 0.15 0.15 0.15 0.14 0.14 0.14 0.13 0.13 0.14 0.13 0.13 0.13 0.13 0.13 0.15
0.16 0.14 0.14 0.14 0.14 0.14 0.15 0.15 0.15 0.15 0.16 0.16 0.16 0.17 0.17 0.17 0.17 0.17 0.17 0.16 0.17 0.17 0.16 0.16 0.16 0.17 0.16 0.17 0.17 0.17 0.17 0.16 0.16 0.16 0.16 0.15 0.15 0.14 0.14 0.14 0.14 0.14 0.13 0.13 0.14 0.14 0.14 0.14 0.13 0.13 0.13 0.15
0.16 0.14 0.13 0.13 0.13 0.14 0.14 0.15 0.15 0.15 0.16 0.16 0.16 0.17 0.17 0.17 0.17 0.17 0.17 0.17 0.17 0.17 0.17 0.17 0.17 0.17 0.17 0.17 0.18 0.17 0.17 0.17 0.16 0.16 0.16 0.15 0.15 0.15 0.15 0.15 0.14 0.14 0.14 0.14 0.14 0.14 0.14 0.13 0.13 0.14 0.13 0.16
0.16 0.13 0.13 0.13 0.13 0.14 0.14 0.14 0.14 0.15 0.15 0.16 0.16 0.16 0.16 0.17 0.17 0.18 0.18 0.18 0.18 0.18 0.18 0.17 0.17 0.18 0.18 0.18 0.18 0.18 0.17 0.17 0.17 0.16 0.16 0.16 0.16 0.15 0.15 0.15 0.15 0.15 0.15 0.15 0.14 0.14 0.14 0.14 0.14 0.14 0.13 0.15
0.17 0.14 0.13 0.13 0.14 0.14 0.14 0.14 0.14 0.15 0.15 0.15 0.16 0.16 0.17 0.17 0.18 0.18 0.18 0.18 0.19 0.18 0.18 0.18 0.18 0.18 0.18 0.18 0.18 0.18 0.18 0.18 0.17 0.17 0.17 0.17 0.17 0.17 0.16 0.16 0.16 0.16 0.15 0.15 0.15 0.15 0.15 0.15 0.14 0.14 0.14 0.15
0.18 0.15 0.13 0.13 0.14 0.14 0.14 0.14 0.15 0.15 0.16 0.16 0.16 0.17 0.17 0.18 0.18 0.18 0.18 0.19 0.19 0.18 0.19 0.18 0.18 0.18 0.19 0.19 0.19 0.18 0.18 0.18 0.18 0.18 0.18 0.17 0.18 0.18 0.17 0.16 0.16 0.16 0.16 0.17 0.16 0.16 0.16 0.15 0.15 0.15 0.15 0.16
0.19 0.16 0.14 0.14 0.15 0.15 0.15 0.15 0.16 0.16 0.16 0.16 0.17 0.17 0.17 0.18 0.18 0.18 0.19 0.19 0.19 0.19 0.19 0.19 0.19 0.19 0.19 0.19 0.19 0.19 0.18 0.18 0.18 0.18 0.18 0.18 0.18 0.18 0.18 0.17 0.18 0.17 0.17 0.18 0.18 0.17 0.17 0.16 0.15 0.16 0.16 0.18
0.20 0.17 0.15 0.14 0.14 0.15 0.15 0.15 0.16 0.17 0.17 0.17 0.17 0.18 0.18 0.18 0.18 0.18 0.19 0.19 0.19 0.19 0.19 0.19 0.19 0.19 0.20 0.19 0.19 0.19 0.18 0.18 0.18 0.18 0.18 0.18 0.18 0.18 0.18 0.19 0.18 0.18 0.18 0.18 0.18 0.18 0.18 0.17 0.17 0.17 0.17 0.18
0.19 0.17 0.15 0.14 0.14 0.13 0.14 0.15 0.16 0.16 0.17 0.17 0.18 0.18 0.19 0.19 0.19 0.19 0.19 0.19 0.20 0.19 0.19 0.19 0.20 0.20 0.20 0.20 0.19 0.19 0.18 0.19 0.18 0.19 0.19 0.19 0.19 0.18 0.18 0.18 0.19 0.19 0.19 0.18 0.17 0.18 0.18 0.18 0.18 0.18 0.19 0.19
0.19 0.18 0.16 0.13 0.13 0.14 0.14 0.15 0.15 0.16 0.17 0.18 0.18 0.19 0.20 0.20 0.20 0.20 0.20 0.20 0.20 0.20 0.20 0.19 0.20 0.20 0.19 0.20 0.19 0.19 0.19 0.19 0.19 0.18 0.18 0.18 0.18 0.19 0.18 0.17 0.18 0.18 0.19 0.16 0.15 0.15 0.15 0.17 0.19 0.19 0.20 0.19
0.19 0.19 0.18 0.15 0.14 0.15 0.15 0.16 0.17 0.17 0.18 0.18 0.19 0.19 0.20 0.20 0.20 0.20 0.20 0.20 0.21 0.20 0.20 0.20 0.20 0.20 0.20 0.20 0.19 0.19 0.19 0.18 0.18 0.18 0.18 0.18 0.17 0.17 0.18 0.17 0.19 0.18 0.18 0.16 0.16 0.17 0.16 0.14 0.14 0.18 0.20 0.21
0.20 0.20 0.19 0.18 0.16 0.16 0.16 0.16 0.17 0.18 0.19 0.19 0.19 0.19 0.20 0.21 0.21 0.21 0.21 0.21 0.21 0.21 0.21 0.20 0.20 0.20 0.20 0.20 0.20 0.19 0.19 0.18 0.18 0.18 0.18 0.18 0.17 0.17 0.16 0.17 0.18 0.19 0.18 0.18 0.17 0.14 0.15 0.15 0.15 0.13 0.17 0.16
0.20 0.20 0.20 0.19 0.18 0.18 0.18 0.18 0.18 0.17 0.17 0.17 0.18 0.19 0.20 0.20 0.21 0.21 0.21 0.21 0.21 0.21 0.21 0.21 0.21 0.20 0.20 0.20 0.20 0.20 0.19 0.19 0.18 0.18 0.18 0.18 0.18 0.17 0.16 0.16 0.17 0.19 0.18 0.18 0.19 0.17 0.15 0.15 0.15 0.14 0.16 0.16
0.20 0.20 0.19 0.18 0.17 0.15 0.15 0.15 0.15 0.15 0.15 0.16 0.17 0.18 0.19 0.20 0.21 0.21 0.21 0.21 0.22 0.22 0.21 0.21 0.21 0.21 0.21 0.20 0.20 0.20 0.19 0.19 0.19 0.19 0.18 0.18 0.18 0.18 0.18 0.17 0.17 0.17 0.19 0.18 0.19 0.19 0.18 0.17 0.15 0.15 0.16 0.16
0.21 0.20 0.20 0.19 0.17 0.16 0.15 0.15 0.15 0.16 0.16 0.17 0.18 0.18 0.18 0.19 0.20 0.21 0.21 0.21 0.22 0.22 0.22 0.22 0.22 0.21 0.21 0.20 0.20 0.20 0.20 0.19 0.19 0.19 0.19 0.19 0.19 0.18 0.18 0.18 0.16 0.17 0.18 0.19 0.19 0.19 0.19 0.19 0.19 0.19 0.17 0.15

ECMWFFLT2_prec_pwat_180.txt.gz
Precipitable_Water
1.04 1.01 0.97 0.95 0.93 0.90 0.90 0.89 0.86 0.83 0.82 0.79 0.74 0.69 0.66 0.63 0.58 0.53 0.49 0.46 0.44 0.43 0.42 0.39 0.37 0.36 0.34 0.32 0.31 0.30 0.29 0.28 0.28 0.27 0.26 0.25 0.24 0.23 0.22 0.21 0.20 0.19 0.18 0.19 0.19 0.20 0.22 0.23 0.25 0.27 0.27 0.27
1.02 0.99 0.96 0.94 0.91 0.89 0.86 0.84 0.81 0.81 0.78 0.74 0.69 0.66 0.62 0.58 0.54 0.49 0.46 0.44 0.42 0.41 0.39 0.38 0.36 0.34 0.32 0.30 0.29 0.28 0.27 0.26 0.25 0.25 0.24 0.24 0.22 0.21 0.20 0.20 0.19 0.18 0.18 0.18 0.18 0.19 0.21 0.22 0.24 0.26 0.25 0.25
0.97 0.96 0.93 0.91 0.87 0.83 0.82 0.80 0.77 0.76 0.72 0.68 0.65 0.61 0.58 0.53 0.49 0.45 0.42 0.41 0.39 0.38 0.36 0.35 0.34 0.32 0.31 0.30 0.28 0.27 0.26 0.24 0.23 0.23 0.23 0.22 0.21 0.20 0.20 0.19 0.18 0.18 0.18 0.17 0.17 0.19 0.20 0.22 0.22 0.24 0.24 0.23
0.90 0.88 0.86 0.83 0.79 0.78 0.76 0.73 0.72 0.69 0.66 0.63 0.59 0.55 0.52 0.48 0.43 0.40 0.37 0.35 0.33 0.32 0.31 0.31 0.32 0.32 0.30 0.29 0.28 0.27 0.25 0.25 0.23 0.23 0.22 0.21 0.20 0.19 0.18 0.18 0.17 0.17 0.17 0.17 0.17 0.18 0.20 0.21 0.21 0.22 0.22 0.22
0.81 0.79 0.76 0.74 0.72 0.70 0.68 0.66 0.64 0.61 0.60 0.57 0.53 0.48 0.43 0.37 0.34 0.32 0.30 0.29 0.28 0.28 0.29 0.29 0.29 0.29 0.29 0.28 0.27 0.26 0.25 0.24 0.24 0.22 0.21 0.20 0.20 0.19 0.19 0.18 0.17 0.17 0.17 0.17 0.17 0.18 0.19 0.20 0.21 0.19 0.20 0.21
0.72 0.69 0.66 0.65 0.63 0.61 0.59 0.58 0.56 0.54 0.51 0.48 0.44 0.39 0.34 0.30 0.28 0.26 0.24 0.24 0.25 0.25 0.26 0.27 0.27 0.27 0.28 0.28 0.26 0.25 0.24 0.23 0.23 0.22 0.21 0.20 0.20 0.20 0.20 0.20 0.18 0.17 0.17 0.17 0.17 0.18 0.18 0.19 0.22 0.23 0.19 0.18
0.63 0.60 0.58 0.56 0.54 0.52 0.50 0.48 0.47 0.46 0.44 0.41 0.37 0.33 0.30 0.27 0.25 0.23 0.23 0.23 0.23 0.22 0.23 0.23 0.24 0.23 0.23 0.22 0.22 0.21 0.20 0.20 0.20 0.20 0.20 0.20 0.20 0.20 0.20 0.18 0.17 0.18 0.17 0.17 0.17 0.17 0.18 0.19 0.21 0.25 0.24 0.19
0.57 0.54 0.53 0.50 0.48 0.46 0.44 0.44 0.43 0.40 0.39 0.36 0.34 0.31 0.29 0.27 0.25 0.24 0.23 0.23 0.21 0.20 0.20 0.20 0.19 0.18 0.18 0.18 0.19 0.17 0.17 0.18 0.19 0.19 0.19 0.19 0.19 0.19 0.18 0.18 0.18 0.17 0.16 0.16 0.17 0.17 0.17 0.18 0.20 0.23 0.26 0.23
0.54 0.53 0.51 0.50 0.47 0.44 0.41 0.41 0.40 0.39 0.38 0.35 0.31 0.29 0.27 0.24 0.23 0.22 0.21 0.20 0.19 0.17 0.17 0.17 0.17 0.18 0.18 0.18 0.18 0.20 0.19 0.19 0.19 0.20 0.19 0.18 0.18 0.18 0.18 0.17 0.18 0.18 0.17 0.17 0.17 0.17 0.17 0.18 0.20 0.22 0.26 0.25
0.53 0.53 0.51 0.49 0.46 0.44 0.43 0.41 0.39 0.37 0.35 0.32 0.29 0.28 0.25 0.22 0.19 0.18 0.18 0.19 0.21 0.20 0.19 0.19 0.20 0.20 0.21 0.19 0.19 0.21 0.20 0.19 0.19 0.18 0.18 0.18 0.17 0.17 0.17 0.17 0.17 0.17 0.17 0.17 0.17 0.17 0.18 0.18 0.19 0.21 0.24 0.26
0.51 0.50 0.49 0.47 0.45 0.43 0.41 0.39 0.37 0.34 0.32 0.29 0.27 0.26 0.24 0.21 0.20 0.19 0.19 0.20 0.20 0.20 0.20 0.20 0.20 0.20 0.19 0.20 0.19 0.20 0.19 0.19 0.19 0.19 0.18 0.17 0.17 0.18 0.18 0.17 0.17 0.17 0.17 0.17 0.17 0.17 0.17 0.18 0.19 0.20 0.23 0.25
0.48 0.47 0.47 0.46 0.45 0.42 0.40 0.37 0.34 0.32 0.29 0.27 0.26 0.24 0.22 0.22 0.21 0.20 0.19 0.20 0.20 0.19 0.19 0.19 0.19 0.19 0.19 0.19 0.19 0.19 0.19 0.18 0.18 0.18 0.18 0.18 0.17 0.17 0.17 0.17 0.17 0.17 0.17 0.17 0.17 0.17 0.17 0.17 0.18 0.19 0.22 0.24
0.45 0.44 0.45 0.45 0.44 0.41 0.38 0.35 0.32 0.29 0.28 0.26 0.24 0.23 0.22 0.22 0.20 0.20 0.19 0.19 0.19 0.20 0.19 0.19 0.19 0.19 0.18 0.18 0.18 0.18 0.18 0.18 0.17 0.17 0.17 0.17 0.17 0.17 0.17 0.17 0.17 0.17 0.17 0.17 0.17 0.17 0.17 0.17 0.18 0.19 0.21 0.22
0.43 0.42 0.42 0.43 0.41 0.38 0.36 0.32 0.30 0.28 0.27 0.25 0.22 0.22 0.22 0.21 0.20 0.19 0.19 0.19 0.19 0.18 0.19 0.19 0.19 0.19 0.18 0.18 0.18 0.18 0.18 0.18 0.18 0.17 0.17 0.17 0.17 0.17 0.17 0.17 0.17 0.17 0.16 0.16 0.17 0.17 0.17 0.16 0.17 0.19 0.20 0.21
0.42 0.42 0.41 0.41 0.39 0.37 0.32 0.29 0.27 0.26 0.25 0.23 0.21 0.21 0.21 0.21 0.21 0.20 0.20 0.19 0.19 0.19 0.19 0.19 0.19 0.18 0.18 0.18 0.18 0.19 0.18 0.18 0.18 0.18 0.18 0.18 0.17 0.17 0.17 0.17 0.18 0.18 0.17 0.16 0.16 0.17 0.17 0.17 0.17 0.18 0.20 0.21
0.40 0.41 0.41 0.40 0.38 0.35 0.30 0.28 0.26 0.25 0.23 0.21 0.20 0.20 0.20 0.21 0.21 0.20 0.20 0.19 0.19 0.19 0.18 0.18 0.18 0.18 0.18 0.18 0.18 0.18 0.18 0.18 0.18 0.18 0.18 0.19 0.18 0.18 0.17 0.17 0.18 0.18 0.17 0.16 0.16 0.17 0.16 0.17 0.16 0.17 0.20 0.19
0.40 0.40 0.40 0.39 0.36 0.34 0.29 0.28 0.27 0.25 0.22 0.21 0.20 0.20 0.20 0.20 0.20 0.19 0.19 0.19 0.19 0.19 0.18 0.18 0.18 0.17 0.17 0.17 0.18 0.18 0.18 0.18 0.18 0.17 0.17 0.17 0.18 0.18 0.17 0.16 0.17 0.17 0.17 0.16 0.16 0.16 0.17 0.17 0.16 0.17 0.19 0.20
0.40 0.40 0.40 0.37 0.34 0.31 0.28 0.27 0.26 0.24 0.22 0.21 0.20 0.21 0.21 0.20 0.19 0.18 0.19 0.18 0.18 0.18 0.18 0.18 0.18 0.17 0.17 0.17 0.17 0.18 0.18 0.17 0.17 0.17 0.17 0.17 0.17 0.17 0.17 0.17 0.17 0.17 0.16 0.16 0.17 0.17 0.17 0.17 0.17 0.17 0.19 0.21
0.40 0.39 0.38 0.35 0.32 0.30 0.28 0.28 0.26 0.24 0.22 0.21 0.21 0.22 0.21 0.20 0.19 0.18 0.18 0.19 0.18 0.18 0.18 0.18 0.17 0.17 0.17 0.18 0.18 0.17 0.18 0.19 0.18 0.18 0.17 0.17 0.16 0.17 0.17 0.17 0.17 0.17 0.16 0.16 0.16 0.17 0.18 0.17 0.17 0.18 0.19 0.21
0.38 0.36 0.35 0.34 0.32 0.31 0.29 0.28 0.26 0.24 0.23 0.22 0.22 0.22 0.22 0.21 0.20 0.18 0.18 0.19 0.18 0.18 0.18 0.18 0.18 0.18 0.18 0.18 0.18 0.18 0.18 0.18 0.17 0.17 0.18 0.18 0.18 0.16 0.16 0.16 0.16 0.17 0.16 0.17 0.16 0.17 0.17 0.17 0.18 0.18 0.18 0.21
0.34 0.32 0.31 0.32 0.31 0.32 0.31 0.29 0.26 0.25 0.24 0.23 0.23 0.23 0.22 0.21 0.20 0.19 0.19 0.19 0.19 0.18 0.18 0.18 0.18 0.19 0.18 0.18 0.18 0.18 0.18 0.18 0.18 0.17 0.17 0.17 0.18 0.18 0.16 0.16 0.16 0.16 0.16 0.17 0.17 0.17 0.18 0.18 0.18 0.18 0.18 0.19
0.32 0.30 0.30 0.30 0.29 0.30 0.30 0.28 0.25 0.24 0.23 0.23 0.23 0.23 0.22 0.21 0.20 0.19 0.19 0.19 0.18 0.18 0.18 0.18 0.18 0.18 0.19 0.18 0.18 0.18 0.17 0.18 0.18 0.18 0.18 0.16 0.18 0.19 0.18 0.17 0.16 0.16 0.17 0.17 0.17 0.17 0.17 0.18 0.18 0.19 0.19 0.19
0.30 0.29 0.29 0.29 0.29 0.29 0.29 0.27 0.25 0.24 0.23 0.23 0.23 0.23 0.22 0.21 0.19 0.18 0.18 0.18 0.18 0.18 0.18 0.18 0.18 0.18 0.19 0.18 0.18 0.18 0.17 0.17 0.18 0.17 0.18 0.17 0.17 0.19 0.19 0.18 0.18 0.17 0.17 0.17 0.17 0.18 0.18 0.19 0.19 0.19 0.20 0.20
0.30 0.28 0.27 0.27 0.27 0.27 0.28 0.26 0.25 0.25 0.25 0.25 0.24 0.23 0.22 0.21 0.18 0.18 0.18 0.17 0.17 0.17 0.18 0.17 0.18 0.18 0.19 0.18 0.18 0.18 0.17 0.17 0.17 0.17 0.17 0.18 0.18 0.17 0.18 0.20 0.19 0.19 0.18 0.18 0.18 0.18 0.19 0.20 0.20 0.19 0.20 0.20
0.29 0.27 0.27 0.27 0.27 0.27 0.28 0.27 0.26 0.26 0.26 0.25 0.24 0.23 0.21 0.20 0.19 0.17 0.18 0.18 0.17 0.17 0.18 0.18 0.18 0.18 0.19 0.18 0.17 0.17 0.17 0.18 0.18 0.18 0.19 0.19 0.20 0.18 0.17 0.18 0.19 0.19 0.19 0.18 0.17 0.20 0.20 0.20 0.21 0.20 0.20 0.20
0.28 0.27 0.26 0.26 0.27 0.28 0.28 0.27 0.27 0.26 0.26 0.26 0.25 0.23 0.22 0.21 0.19 0.18 0.17 0.18 0.17 0.17 0.17 0.17 0.17 0.18 0.18 0.18 0.17 0.18 0.19 0.19 0.19 0.19 0.19 0.19 0.19 0.20 0.19 0.18 0.19 0.19 0.19 0.17 0.16 0.17 0.18 0.19 0.21 0.21 0.20 0.20
0.27 0.27 0.27 0.26 0.25 0.26 0.26 0.27 0.26 0.25 0.25 0.24 0.23 0.22 0.21 0.20 0.19 0.17 0.17 0.17 0.17 0.16 0.16 0.17 0.17 0.17 0.18 0.18 0.18 0.17 0.18 0.19 0.19 0.19 0.19 0.19 0.18 0.18 0.20 0.20 0.21 0.20 0.20 0.16 0.19 0.19 0.17 0.15 0.15 0.19 0.20 0.21
0.28 0.28 0.28 0.27 0.27 0.26 0.26 0.25 0.26 0.25 0.24 0.23 0.22 0.21 0.21 0.21 0.20 0.18 0.17 0.17 0.17 0.17 0.17 0.17 0.17 0.18 0.18 0.19 0.19 0.18 0.18 0.18 0.19 0.19 0.20 0.20 0.20 0.20 0.18 0.19 0.19 0.22 0.22 0.20 0.18 0.15 0.15 0.15 0.16 0.14 0.16 0.17
0.29 0.28 0.28 0.28 0.27 0.27 0.26 0.26 0.25 0.24 0.23 0.22 0.22 0.22 0.21 0.21 0.22 0.20 0.18 0.18 0.18 0.18 0.18 0.18 0.18 0.18 0.19 0.19 0.20 0.19 0.19 0.18 0.18 0.19 0.20 0.21 0.20 0.20 0.19 0.19 0.20 0.21 0.22 0.21 0.21 0.17 0.16 0.15 0.14 0.14 0.15 0.18
0.30 0.28 0.28 0.28 0.27 0.25 0.24 0.24 0.24 0.23 0.22 0.23 0.23 0.22 0.23 0.24 0.24 0.23 0.21 0.19 0.18 0.18 0.18 0.18 0.18 0.19 0.19 0.19 0.20 0.20 0.20 0.19 0.20 0.20 0.20 0.20 0.20 0.19 0.20 0.19 0.20 0.20 0.22 0.22 0.20 0.20 0.20 0.19 0.15 0.15 0.18 0.17
0.31 0.30 0.28 0.28 0.28 0.28 0.27 0.26 0.26 0.26 0.26 0.25 0.25 0.25 0.24 0.24 0.26 0.26 0.24 0.21 0.19 0.18 0.18 0.18 0.18 0.19 0.19 0.20 0.21 0.21 0.21 0.20 0.20 0.21 0.21 0.21 0.21 0.20 0.20 0.20 0.18 0.18 0.19 0.22 0.21 0.21 0.20 0.20 0.20 0.20 0.17 0.14